Regional Weather Roundup
Issued by NWS

Home | Current Version | Previous Version | Graphics & Text | Print | Product List | Glossary On
Versions: 1 2 3 4 5 6 7 8 9 10 11 12 13 14 15 16 17 18 19 20 21 22 23 24 25 26 27 28 29 30 31 32 33 34 35 36 37 38 39 40 41 42 43 44 45 46 47 48 49 50
000
ASUS43 KIND 280159
RWRIN

WEATHER ROUNDUP FOR INDIANA
NATIONAL WEATHER SERVICE INDIANAPOLIS IN
1000 PM EDT THU AUG 27 2015

NOTE: "FAIR" INDICATES FEW OR NO CLOUDS BELOW 12,000 FEET WITH NO
SIGNIFICANT WEATHER AND/OR OBSTRUCTIONS TO VISIBILITY.

* - STATION DOES NOT REPORT WEATHER SUCH AS PRECIPITATION OR FOG.

+ - STATION NOT QUALITY CONTROLLED BY THE NATIONAL WEATHER SERVICE.
    USE DATA WITH CAUTION...ESPECIALLY DEWPOINT AND RELATIVE
    HUMIDITY OBSERVATIONS.

INZ001>003-010>013-019-020-280300-
NORTHWEST INDIANA

CITY           SKY/WX    TMP DP  RH WIND       PRES   REMARKS
GARY /AIRPORT/ PTCLDY    61  55  82 E5        30.14R
KNOX *+        PTCLDY    61  55  82 NE3       30.14R
MONTICELLO +   PTCLDY    65  60  82 CALM      30.12S
RENSSELAER +   MOCLDY    63  59  88 NE5       30.13S

$$

LMZ046-743>745-280300-
SOUTHERN LAKE MICHIGAN

STATION/POSITION TIME  TEMP    WIND        PRES    WAVE
                       AIR SEA DIR/SP/G            HT
                 (UTC) (F)     (DEG/KT/KT) (MB)    (FT)
BURNS HARBOR     0100   66      80/  6/  8 1020.7S
MICHIGAN CITY    0100   65      60/  6/  7   N/A
5NW MICH CITY    0100   67 71  110/  8/  8   N/A     0

$$

INZ004-005-014>016-021>024-280300-
NORTH CENTRAL INDIANA

CITY           SKY/WX    TMP DP  RH WIND       PRES   REMARKS
GOSHEN         CLEAR     60  55  83 E5        30.15S
SOUTH BEND     CLEAR     59  54  83 CALM      30.16R

$$

INZ006>009-017-018-025>027-280300-
NORTHEAST INDIANA

CITY           SKY/WX    TMP DP  RH WIND       PRES   REMARKS
ANGOLA *+      CLEAR     55  55 100 CALM      30.18S
FORT WAYNE     PTCLDY    60  56  86 E3        30.16F

$$

INZ028-029-035-036-043>045-051>053-280300-
WEST CENTRAL INDIANA

CITY           SKY/WX    TMP DP  RH WIND       PRES   REMARKS
CRAWFORDSVL +  MOCLDY    58  58  99 CALM      30.12S
GREENCASTLE +  MOCLDY    63  57  82 CALM      30.13R
LAFAYETTE      MOCLDY    65  58  78 NE5       30.11S
TERRE HAUTE    MOCLDY    65  60  84 CALM      30.11R

$$

INZ030>032-037>040-046>048-054>057-064-065-280300-
CENTRAL INDIANA

CITY           SKY/WX    TMP DP  RH WIND       PRES   REMARKS
COLUMBUS       CLEAR     64  55  72 CALM      30.14R
FRANKFORT +    PTCLDY    62  61  98 E6        30.14S
GREENWOOD *+   CLEAR     68  54  60 SE5       30.14S
INDIANAPOLIS   MOCLDY    69  57  65 SE5       30.11R
-EAGLE CREEK   PTCLDY    67  60  78 CALM      30.12R
KOKOMO *+      CLEAR     61  55  82 E6        30.14S
MT COMFORT *+  CLEAR     63 N/A N/A E7        30.14R
SHELBYVILLE    CLEAR     65  59  81 E7        30.13R

$$

INZ033-034-041-042-049-050-058-059-280300-
EAST CENTRAL INDIANA

CITY           SKY/WX    TMP DP  RH WIND       PRES   REMARKS
MUNCIE         CLEAR     59  57  93 E7        30.15S

$$

INZ060-061-067>069-081>083-085>088-280300-
SOUTHWEST INDIANA

CITY           SKY/WX    TMP DP  RH WIND       PRES   REMARKS
EVANSVILLE     CLEAR     71  60  68 CALM      30.11R
HUNTINGBURG *+ PTCLDY    66  59  77 SE5       30.11S

$$

INZ062-063-066-070>080-084-089>092-280300-
SOUTH CENTRAL AND SOUTHEAST INDIANA

CITY           SKY/WX    TMP DP  RH WIND       PRES   REMARKS
BLOOMINGTON    MOCLDY    62  60  93 CALM      30.12S
MADISON *+     CLEAR     61  57  88 CALM      30.17R
SEYMOUR +      FAIR      64  59  82 SE5       30.13R

$$




USA.gov is the U.S. government's official web portal to all federal, state and local government web resources and services.